Lincoln, NE

6:43 AM CST on November 15, 2019 (GMT -0600)
Lincoln Municipal

Weather History for KLNK - August, 2019

Change the Weather History Date:

Saturday, August 24, 2019

  Actual Average Record
Temperature  
Mean Temperature 71 °F 74 °F  
Max Temperature 75 °F 86 °F 107 °F (1936)
Min Temperature 67 °F 63 °F 43 °F (1891)
Degree Days  
Heating Degree Days 0 0  
Month to date heating degree days 0 0  
Since 1 June heating degree days 6 17  
Since 1 July heating degree days 0 1  
Cooling Degree Days 6 9  
Month to date cooling degree days 266 265  
Year to date cooling degree days 1012 976  
Since 1 June cooling degree days 940 897  
Growing Degree Days 20 (Base 50)    
Moisture  
Dew Point 63 °F    
Average Humidity 78    
Maximum Humidity 87    
Minimum Humidity 68    
Precipitation  
Precipitation 0.04 in 0.12 in 1.90 in (1982)
Month to date precipitation 2.15 2.67  
Year to date precipitation 24.02 20.76  
Snow  
Snow 0.00 in 0.00 in 0.00 in (2006)
Month to date snowfall 0.0 0.0  
Since 1 June snowfall 0.0 0.0  
Since 1 July snowfall 0.0 0.0  
Snow Depth 0.00 in    
Sea Level Pressure  
Sea Level Pressure 30.05 in    
Wind  
Wind Speed 12 mph (SE)    
Max Wind Speed 21 mph    
Max Gust Speed 27 mph    
Visibility 10 miles    
Events Rain    
T = Trace of Precipitation, MM = Missing Value Source: NWS Daily Summary

Daily Weather History Graph

Daily Weather History Graph

Search for Another Location

Airport or City:

Astronomy

Aug. 24, 2019 Rise Set
Actual Time 6:45 AM CDT 8:12 PM CDT
Civil Twilight 6:17 AM CDT 8:40 PM CDT
Nautical Twilight 5:42 AM CDT 9:15 PM CDT
Astronomical Twilight 5:05 AM CDT 9:51 PM CDT
Moon 12:38 AM CDT (8/24) 3:30 PM CDT (8/24)
Length of Visible Light 14h 23m
Length of Day
13h 26m
Last Quarter, 39% of the Moon is Illuminated
Aug 24
Last Quarter
Aug 30
New
Sep 5
First Quarter
Sep 13
Full
Sep 21
Last Quarter

Hourly Weather History & Observations

Time (CDT) Temp. Dew Point Humidity Pressure Visibility Wind Dir Wind Speed Gust Speed Precip Events Conditions
12:54 AM 70.0 °F 61.0 °F 73% 30.09 in 10.0 mi ESE 8.1 mph - N/A   Scattered Clouds
1:54 AM 70.0 °F 62.1 °F 76% 30.09 in 10.0 mi ESE 9.2 mph - N/A   Clear
2:54 AM 69.1 °F 62.1 °F 78% 30.09 in 10.0 mi ESE 15.0 mph - N/A   Overcast
3:54 AM 69.1 °F 62.1 °F 78% 30.08 in 10.0 mi SE 12.7 mph - N/A   Clear
4:54 AM 68.0 °F 62.1 °F 81% 30.08 in 10.0 mi SE 15.0 mph - N/A   Clear
5:54 AM 66.9 °F 62.1 °F 84% 30.07 in 10.0 mi ESE 10.4 mph - N/A   Clear
6:54 AM 66.9 °F 62.1 °F 84% 30.08 in 10.0 mi SE 11.5 mph - N/A   Partly Cloudy
7:54 AM 68.0 °F 62.1 °F 81% 30.08 in 10.0 mi SE 12.7 mph - N/A   Clear
8:54 AM 68.0 °F 62.1 °F 81% 30.08 in 10.0 mi ESE 11.5 mph - N/A   Scattered Clouds
9:08 AM 68.0 °F 62.1 °F 81% 30.10 in 10.0 mi ESE 11.5 mph - N/A   Mostly Cloudy
9:54 AM 68.0 °F 62.1 °F 81% 30.08 in 10.0 mi SE 13.8 mph - N/A   Overcast
10:35 AM 72.0 °F 62.1 °F 71% 30.10 in 10.0 mi SE 15.0 mph 26.5 mph N/A   Scattered Clouds
10:54 AM 71.1 °F 62.1 °F 73% 30.06 in 10.0 mi SE 13.8 mph - N/A   Partly Cloudy
11:38 AM 73.0 °F 63.0 °F 71% 30.08 in 10.0 mi SE 13.8 mph 25.3 mph N/A   Scattered Clouds
11:54 AM 73.9 °F 63.0 °F 68% 30.05 in 10.0 mi SE 18.4 mph 23.0 mph N/A   Scattered Clouds
12:54 PM 73.0 °F 62.1 °F 68% 30.03 in 10.0 mi SE 19.6 mph 27.6 mph N/A   Mostly Cloudy
1:34 PM 73.9 °F 62.1 °F 66% 30.05 in 10.0 mi SE 13.8 mph 25.3 mph N/A   Scattered Clouds
1:54 PM 73.9 °F 63.0 °F 68% 30.03 in 10.0 mi SE 16.1 mph - N/A   Mostly Cloudy
2:54 PM 73.0 °F 63.0 °F 71% 30.05 in 10.0 mi SSE 11.5 mph - N/A   Overcast
3:07 PM 72.0 °F 63.0 °F 73% 30.07 in 9.0 mi SSE 11.5 mph 19.6 mph 0.00 in Rain Light Rain
3:18 PM 72.0 °F 64.0 °F 76% 30.07 in 8.0 mi SSE 11.5 mph - 0.01 in Rain Light Rain
3:54 PM 71.1 °F 64.0 °F 78% 30.03 in 4.0 mi SSE 13.8 mph - 0.02 in Rain Rain
4:54 PM 71.1 °F 64.9 °F 81% 30.01 in 10.0 mi ESE 11.5 mph - 0.01 in Rain Light Rain
5:02 PM 71.1 °F 64.9 °F 81% 30.03 in 6.0 mi ESE 15.0 mph - 0.00 in Rain Rain
5:19 PM 71.1 °F 64.9 °F 81% 30.03 in 10.0 mi SE 12.7 mph - 0.01 in   Overcast
5:39 PM 72.0 °F 64.9 °F 78% 30.03 in 10.0 mi SE 10.4 mph - 0.01 in   Overcast
5:49 PM 71.6 °F 64.4 °F 78% 30.03 in 10.0 mi SE 16.1 mph 21.9 mph 0.01 in   Overcast
5:54 PM 71.1 °F 64.0 °F 78% 30.01 in 10.0 mi SE 12.7 mph - 0.01 in   Overcast
6:54 PM 70.0 °F 63.0 °F 78% 30.01 in 10.0 mi ESE 6.9 mph - N/A   Overcast
7:54 PM 70.0 °F 63.0 °F 78% 30.00 in 10.0 mi ESE 6.9 mph - N/A   Overcast
8:52 PM 69.8 °F 62.6 °F 78% 30.03 in 10.0 mi SE 10.4 mph - N/A   Overcast
8:54 PM 70.0 °F 63.0 °F 78% 30.01 in 10.0 mi SE 10.4 mph - N/A   Overcast
9:54 PM 70.0 °F 63.0 °F 78% 30.01 in 10.0 mi SE 9.2 mph - N/A   Overcast
10:54 PM 70.0 °F 63.0 °F 78% 30.00 in 10.0 mi SE 10.4 mph - N/A   Overcast
11:54 PM 68.0 °F 63.0 °F 84% 29.96 in 10.0 mi ESE 11.5 mph - N/A   Partly Cloudy